Weather History for Sylvania, GA

Change the Weather History Date:

Sunday, March 23, 2014

  Actual Average (KSAV) Record (KSAV)
Temperature  
Mean Temperature 66 °F 61 °F  
Max Temperature 75 °F 73 °F 94 °F (1907)
Min Temperature 56 °F 49 °F 30 °F (1986)
Degree Days  
Heating Degree Days 0 5  
Month to date heating degree days 172  
Since 1 July heating degree days 1689  
Cooling Degree Days 0 1  
Month to date cooling degree days 23  
Year to date cooling degree days 33  
Growing Degree Days 16 (Base 50)    
Moisture  
Dew Point 54 °F    
Average Humidity 69    
Maximum Humidity 93    
Minimum Humidity 40    
Precipitation  
Precipitation 0.00 in 0.11 in 2.94 in (1993)
Month to date precipitation 2.74  
Year to date precipitation 9.22  
Sea Level Pressure  
Sea Level Pressure 29.98 in    
Wind  
Wind Speed 4 mph (NW)    
Max Wind Speed 16 mph    
Max Gust Speed 22 mph    
Visibility 7 miles    
Events Fog , Rain    
T = Trace of Precipitation, MM = Missing Value Source: NWS Daily Summary

Daily Weather History Graph

Daily Weather History Graph

Search for Another Location

Airport:

Trip Planner

Search our weather history database for the weather conditions in past years. The results will help you decide how hot, cold, wet, or windy it might be!

Date:

Astronomy

Mar. 23, 2014 Rise Set
Actual Time 7:26 AM EDT 7:40 PM EDT
Civil Twilight 7:01 AM EDT 8:04 PM EDT
Nautical Twilight 6:32 AM EDT 8:33 PM EDT
Astronomical Twilight 6:03 AM EDT 9:02 PM EDT
Moon 1:40 AM EDT (3/23) 12:21 PM EDT (3/23)
Length of Visible Light 13h 03m
Length of Day
12h 13m
Waning Gibbous, 55% of the Moon is Illuminated
Mar 23
Waning Gibbous
Mar 23
Last Quarter
Mar 30
New
Apr 7
First Quarter
Apr 15
Full

Hourly Weather History & Observations

Time (EDT) Temp. Dew Point Humidity Pressure Visibility Wind Dir Wind Speed Gust Speed Precip Events Conditions
12:15 AM 63.9 °F 60.8 °F 90% 30.03 in 4.0 mi NNE 3.5 mph - N/A   Scattered Clouds
12:35 AM 64.0 °F 61.2 °F 90% 30.04 in 5.0 mi Calm Calm - N/A   Overcast
12:55 AM 63.9 °F 60.8 °F 90% 30.02 in 4.0 mi Calm Calm - N/A   Overcast
1:15 AM 61.7 °F 59.0 °F 91% 30.01 in 2.5 mi Calm Calm - N/A   Overcast
1:35 AM 61.5 °F 58.8 °F 91% 30.01 in 2.5 mi Calm Calm - N/A   Overcast
1:55 AM 61.9 °F 59.4 °F 91% 30.01 in 2.0 mi Calm Calm - N/A   Overcast
2:15 AM 63.1 °F 60.6 °F 91% 30.01 in 0.2 mi Calm Calm - N/A Fog Fog
2:35 AM 63.5 °F 60.8 °F 91% 30.00 in 0.2 mi Calm Calm - N/A Fog Fog
2:55 AM 63.1 °F 60.8 °F 92% 29.99 in 0.2 mi Calm Calm - N/A Fog Fog
3:15 AM 63.1 °F 60.8 °F 92% 29.99 in 0.2 mi Calm Calm - N/A Fog Fog
3:35 AM 63.0 °F 60.8 °F 93% 29.98 in 0.2 mi Calm Calm - N/A Fog Fog
3:55 AM 62.6 °F 60.3 °F 92% 29.97 in 0.2 mi Calm Calm - N/A Fog Fog
4:15 AM 62.6 °F 60.1 °F 91% 29.96 in 0.2 mi Calm Calm - N/A Fog Fog
4:35 AM 61.9 °F 59.7 °F 93% 29.96 in 0.2 mi Calm Calm - N/A Fog Fog
4:55 AM 61.7 °F 59.2 °F 91% 29.96 in 0.2 mi Calm Calm - N/A Fog Fog
5:15 AM 61.2 °F 59.0 °F 93% 29.96 in 0.2 mi Calm Calm - N/A Fog Fog
5:35 AM 60.8 °F 58.3 °F 91% 29.96 in 0.2 mi Calm Calm - N/A Fog Fog
5:55 AM 60.3 °F 58.1 °F 93% 29.96 in 0.2 mi Calm Calm - N/A Fog Fog
6:15 AM 59.9 °F 57.7 °F 93% 29.96 in 0.2 mi Calm Calm - N/A Fog Fog
6:35 AM 59.5 °F 57.4 °F 93% 29.96 in 0.2 mi Calm Calm - N/A Fog Fog
6:55 AM 58.6 °F 56.5 °F 93% 29.96 in 0.2 mi Calm Calm - N/A Fog Fog
7:15 AM 58.1 °F 55.8 °F 92% 29.97 in 0.2 mi Calm Calm - N/A Fog Fog
7:35 AM 57.4 °F 55.4 °F 93% 29.97 in 0.5 mi Calm Calm - N/A Fog Fog
7:55 AM 56.7 °F 54.5 °F 92% 29.98 in 0.2 mi Calm Calm - N/A Fog Fog
8:15 AM 57.2 °F 54.9 °F 92% 29.99 in 0.2 mi Calm Calm - N/A Fog Fog
8:35 AM 58.3 °F 56.3 °F 93% 29.99 in 3.0 mi Calm Calm - N/A   Clear
8:55 AM 59.0 °F 56.8 °F 93% 29.99 in 5.0 mi Calm Calm - N/A   Clear
9:15 AM 59.7 °F 57.6 °F 93% 29.99 in 10.0 mi Calm Calm - N/A   Clear
9:35 AM 60.8 °F 58.6 °F 93% 29.99 in 10.0 mi Calm Calm - N/A   Clear
9:55 AM 62.4 °F 59.9 °F 91% 29.99 in 10.0 mi Calm Calm - N/A   Clear
10:15 AM 64.0 °F 60.3 °F 87% 29.99 in 10.0 mi WNW 5.8 mph - N/A   Clear
10:35 AM 67.8 °F 58.3 °F 71% 29.99 in 10.0 mi WNW 3.5 mph - N/A   Clear
10:55 AM 71.4 °F 55.8 °F 58% 29.99 in 10.0 mi NW 3.5 mph - N/A   Clear
11:15 AM 72.3 °F 54.1 °F 53% 29.99 in 10.0 mi WNW 5.8 mph - N/A   Clear
11:35 AM 73.8 °F 51.8 °F 46% 29.99 in 10.0 mi NW 8.1 mph - N/A   Clear
11:55 AM 75.0 °F 50.9 °F 43% 29.99 in 10.0 mi West 4.6 mph - N/A   Clear
12:15 PM 75.2 °F 50.7 °F 42% 29.99 in 10.0 mi West 6.9 mph - N/A   Clear
12:35 PM 74.8 °F 50.2 °F 42% 29.99 in 10.0 mi WNW 8.1 mph - N/A   Clear
12:55 PM 74.7 °F 49.1 °F 40% 29.99 in 10.0 mi WNW 10.4 mph - N/A   Clear
1:15 PM 74.8 °F 50.2 °F 42% 29.98 in 10.0 mi NW 13.8 mph 21.9 mph N/A   Clear
1:35 PM 72.5 °F 50.2 °F 45% 29.99 in 10.0 mi WNW 16.1 mph 19.6 mph N/A   Clear
1:55 PM 71.6 °F 50.9 °F 48% 29.98 in 10.0 mi WNW 11.5 mph - N/A   Scattered Clouds
2:15 PM 70.7 °F 51.3 °F 50% 29.99 in 10.0 mi WNW 12.7 mph - N/A   Mostly Cloudy
2:35 PM 69.8 °F 53.2 °F 56% 29.97 in 10.0 mi NW 9.2 mph - N/A Rain Light Rain
2:55 PM 70.2 °F 52.3 °F 53% 29.95 in 10.0 mi NW 8.1 mph - N/A   Mostly Cloudy
3:15 PM 70.5 °F 51.8 °F 51% 29.93 in 10.0 mi WNW 5.8 mph - N/A   Clear
3:35 PM 72.0 °F 52.2 °F 50% 29.93 in 10.0 mi West 6.9 mph - N/A   Clear
3:55 PM 74.3 °F 51.4 °F 45% 29.91 in 10.0 mi WNW 11.5 mph 16.1 mph N/A   Mostly Cloudy
4:15 PM 74.7 °F 51.3 °F 44% 29.91 in 10.0 mi WNW 13.8 mph - N/A   Scattered Clouds
4:35 PM 75.2 °F 51.3 °F 43% 29.91 in 10.0 mi WNW 11.5 mph 18.4 mph N/A   Scattered Clouds
4:55 PM 75.0 °F 51.6 °F 44% 29.90 in 10.0 mi WNW 11.5 mph - N/A   Scattered Clouds
5:15 PM 75.4 °F 51.6 °F 43% 29.90 in 10.0 mi West 9.2 mph 19.6 mph N/A   Mostly Cloudy
5:35 PM 75.0 °F 52.3 °F 45% 29.90 in 10.0 mi NW 9.2 mph - N/A   Mostly Cloudy
5:55 PM 75.2 °F 52.5 °F 45% 29.90 in 10.0 mi NNW 12.7 mph - N/A   Scattered Clouds
6:15 PM 74.7 °F 52.9 °F 46% 29.90 in 10.0 mi NW 10.4 mph - N/A   Clear
6:35 PM 73.8 °F 53.4 °F 49% 29.92 in 10.0 mi NW 8.1 mph - N/A   Scattered Clouds
6:55 PM 73.0 °F 52.7 °F 49% 29.92 in 10.0 mi NNW 10.4 mph - N/A   Overcast
7:15 PM 72.1 °F 53.1 °F 51% 29.93 in 10.0 mi NNW 9.2 mph - N/A   Overcast
7:35 PM 71.6 °F 53.8 °F 53% 29.94 in 10.0 mi NW 8.1 mph - N/A   Overcast
7:55 PM 71.1 °F 54.0 °F 55% 29.95 in 10.0 mi NW 9.2 mph - N/A   Overcast
8:15 PM 70.7 °F 53.8 °F 55% 29.96 in 10.0 mi NW 8.1 mph - N/A   Overcast
8:35 PM 70.0 °F 54.1 °F 57% 29.97 in 10.0 mi NW 9.2 mph - N/A   Overcast
8:55 PM 69.3 °F 54.1 °F 59% 29.98 in 10.0 mi NW 6.9 mph - N/A   Overcast
9:15 PM 68.4 °F 51.8 °F 55% 30.00 in 10.0 mi ENE 13.8 mph 18.4 mph N/A   Overcast
9:35 PM 65.5 °F 47.3 °F 52% 30.02 in 10.0 mi NE 13.8 mph 19.6 mph N/A   Overcast
9:55 PM 63.3 °F 45.7 °F 53% 30.04 in 10.0 mi NNE 12.7 mph - N/A   Mostly Cloudy
10:15 PM 61.7 °F 45.5 °F 55% 30.05 in 10.0 mi NNE 13.8 mph - N/A   Scattered Clouds
10:35 PM 60.3 °F 45.7 °F 59% 30.06 in 10.0 mi NE 8.1 mph - N/A   Scattered Clouds
10:55 PM 59.0 °F 45.1 °F 60% 30.06 in 10.0 mi NE 9.2 mph - N/A   Clear
11:15 PM 57.7 °F 44.6 °F 62% 30.08 in 10.0 mi NE 13.8 mph - N/A   Clear
11:35 PM 57.0 °F 44.8 °F 64% 30.09 in 10.0 mi NE 6.9 mph - N/A   Clear
11:55 PM 56.1 °F 45.0 °F 66% 30.09 in 10.0 mi NE 5.8 mph - N/A   Clear